Location: Newark
(22.3060°N, 114.2134°E)
Time: 01:09:51
(UTC+00:00)

Vanguard 2 - Pass Details

Date: 04 August 2021
Orbit: 553 x 2937 km, 32.9° (Epoch: 27 September)

Event Time Altitude Azimuth Distance (km) Brightness Sun altitude
Rises 01:17:47 0° 295° (WNW) 3,385 10.5 44.8°
Reaches altitude 10° 01:19:50 10° 295° (WNW) 2,645 10.0 45.3°
Maximum altitude 01:26:16 86° 207° (SSW) 1,305 9.5 46.8°
Drops below altitude 10° 01:37:24 10° 120° (ESE) 4,409 12.1 49.4°
Sets 01:41:49 0° 119° (ESE) 5,783 12.5 50.4°
